STARLINK-5518, 56469

Orbit data source: Space-Track

STARLINK-5518, 56469 is a payload satellite owned by SpaceX/Seattle (US) in LEO that was launched on Wed, 10 May 2023 UTC via an FALCON 9 launch vehicle from the Air Force Western Test Range (AFWTR). Payload-class satellites include a variety of spacecraft equipped with specific instruments for various scientific and technological missions. These include communications satellites like Starlink; space stations such as the ISS; scientific satellites like the Hubble; Earth observation satellites from companies like Planet Labs, Umbra, and HawkEye 360; GPS; miniature CubeSats for education and research; and military/defense satellites.

Loading next visibility...
Identifier
56469, 2023-064X
Orbit
LEO
Country
Flag of USUS
Related business
Manufacturer
SpaceX/Seattle
Mission
Operational Commercial Communications
Bus & Motor
STARLINK, Unknown motor
Mass
305 kg wet, ~290 kg dry
Launch date (UTC)
2023-05-10 (3 years ago)
Launch vehicle
FALCON 9
Launch site
Air Force Western Test Range (AFWTR)
Object type
Payload
Rocket body
Debris
Shape & HBR
Box + 1 Pan, 10.1 m
Radar Cross Section
11.087 m², Large (>1 m²)

Expand to show TLE details & history
Last TLE update: 2 days ago

TLE from 2 days ago
0 STARLINK-5518
1 56469U 23064X   26171.42847337  .00000456  00000-0  46017-4 0  9997
2 56469  69.9988 225.6095 0003515 268.8667  91.2089 14.98330579171127
Epoch: 2026-06-20T10:17Z
TLE epoch observation values (Epoch: 2026-06-20T10:17:00.099Z)
Latitude
-0.00004°
Longitude
162.71584°
Altitude
574.53 km
Speed
7.574 km/s
True Right ascension
15h 02m 26s
True Declination
0° 00' 00"
Sunlit
Object was in full shadow at epoch
Visualization orbit readout
Latitude
Unknown
Longitude
Unknown
Altitude
Unknown
Speed
Unknown
Apparent Right ascension
Unknown
Apparent Declination
Unknown
Sunlit
N/A
Visualization observer readout
Local Sidereal Time
21:30:35
Azimuth
Unknown
Elevation
Unknown
Doppler factor
Unknown
Orbital elements
Apogee altitude
572.445 km
Perigee altitude
567.56 km
Semi-major axis
6,948.139 km
Eccentricity
0.00035
Inclination
69.9988°
RAAN
225.6095°
Arg. of periapsis
268.8667°
True anomaly
91.24917°
Mean anomaly
91.2089°
Eccentric anomaly
91.22903°
Mean motion
3.74749 °/min
Orbital period
96.06 mins
BSTAR
0.000046017
Loading maneuver chart data...
Computing Atmospheric mass density...
Loading historical data...
Loading historical data...
Loading historical data...
Loading historical data...
Loading historical data...
Loading historical data...
Loading historical data...

Documentation

Showing up to 5 results
|